[[{"header":{"parameterUnit":"m.s-1","parameterCategory":1,"la1":30.2991,"la2":30.254,"lo1":-89.0895,"lo2":-89.0444,"dy":0.0017,"dx":0.0017,"nx":28,"ny":28,"refTime":"2025-05-16T03:00:00:Z","depth":0,"parameterNumber":2,"parameterNumberName":"U-component_of_WINDS"},"data":[0,0,0,0,0,0,0,0,0,0,0,0,0,0,0,0,0,0,0,0,0,0,0,0,0,0,0,0,0,0,0,0,0,0,0,0,0,0,0,0,0,0,0,0,0,0,0,0,0,0,0,0,0,0,0,0,0,0,-0.9126,-0.9125,0,-0.9036,-0.9035,-0.9034,-0.8991,-0.8991,-0.8991,-0.8991,-0.8894,-0.8892,-0.8889,0,0,0,0,0,0,0,0,0,0,0,0,0,-0.9257,-0.9255,-0.9126,-0.9125,-0.9124,-0.9036,-0.9035,-0.9033,-0.8991,-0.8991,-0.8991,-0.8991,-0.8895,-0.8892,-0.8889,0,0,0,0,0,0,0,0,0,0,0,0,0,-0.9187,-0.9254,-0.9126,-0.9092,-0.9088,-0.9036,-0.9035,-0.9033,-0.8991,-0.8991,-0.8991,-0.8991,-0.8896,-0.8893,-0.8889,-0.8863,0,0,-0.8877,-0.8875,0,0,0,0,0,0,0,0,-0.9191,-0.9182,-0.9098,-0.9094,-0.909,-0.9025,-0.9045,-0.8976,-0.8991,-0.9027,-0.8991,-0.8991,-0.8937,-0.893,-0.8913,-0.8858,-0.8854,-0.8876,-0.8874,-0.8872,-0.8871,0,0,0,0,0,0,0,-0.9195,-0.9185,-0.909,-0.9097,-0.9092,-0.908,-0.907,-0.9032,-0.8983,-0.9024,-0.9021,-0.9011,-0.8935,-0.8917,-0.891,-0.8853,-0.8876,-0.8873,-0.8871,-0.8869,-0.8773,-0.8772,0,0,0,0,0,0,-0.9206,-0.919,-0.9093,-0.9087,-0.9141,-0.9077,-0.9066,-0.9045,-0.8983,-0.8974,-0.9011,-0.9009,-0.8924,-0.8915,-0.8907,-0.8873,-0.8872,-0.8869,-0.8866,-0.8773,-0.8772,-0.8772,0,0,0,0,0,0,-0.9209,-0.9198,-0.9096,-0.9138,-0.9124,-0.9075,-0.9052,-0.9043,-0.9025,-0.8973,-0.8964,-0.9002,-0.8923,-0.8912,-0.8874,-0.8869,-0.8867,-0.8863,-0.8773,-0.8773,-0.8772,-0.8804,0,0,0,0,0,0,-0.9213,-0.92,-0.919,-0.9138,-0.9122,-0.9067,-0.9051,-0.9042,-0.9019,-0.9016,-0.8962,-0.8953,-0.8922,-0.8881,-0.8871,-0.8863,-0.886,-0.8773,-0.8773,-0.8772,-0.8803,-0.8805,-0.8806,0,0,0,0,0,-0.9218,-0.9202,-0.919,-0.9179,-0.9109,-0.9067,-0.9057,-0.9024,-0.9019,-0.9008,-0.8975,-0.8955,-0.8871,-0.8877,-0.8865,-0.8857,-0.8773,-0.8773,-0.8773,-0.8803,-0.8805,-0.8806,0,0,0,0,0,0,-0.9253,-0.9194,-0.918,-0.9147,-0.9112,-0.906,-0.9045,-0.9027,-0.8991,-0.899,-0.8948,-0.8936,-0.8902,-0.8875,-0.8883,-0.8829,-0.882,-0.8817,-0.8847,-0.8849,-0.885,-0.8857,-0.8857,0,0,0,0,0,-0.9257,-0.9229,-0.9178,-0.9154,-0.9137,-0.9095,-0.9075,-0.9052,-0.9014,-0.8998,-0.8962,-0.8925,-0.889,-0.8868,-0.8833,-0.8799,-0.8787,-0.8788,-0.8789,-0.8791,-0.8788,-0.8768,-0.8768,-0.8771,-0.8771,-0.8771,0,0,-0.9265,-0.9229,-0.9214,-0.916,-0.913,-0.9101,-0.9082,-0.9052,-0.9029,-0.8993,-0.8956,-0.8928,-0.8883,-0.8848,-0.883,-0.8824,-0.8785,-0.879,-0.8792,-0.8788,-0.8768,-0.8768,-0.8768,-0.877,-0.877,-0.877,0,0,-0.9264,-0.9234,-0.921,-0.9182,-0.9138,-0.9109,-0.9104,-0.9054,-0.9035,-0.8997,-0.8969,-0.8941,-0.8882,-0.8851,-0.8828,-0.8816,-0.8796,-0.8806,-0.8813,-0.8794,-0.8794,-0.8793,-0.8789,-0.8788,-0.8804,-0.8804,-0.8804,0,-0.9278,-0.9234,-0.92,-0.9171,-0.9148,-0.9116,-0.9091,-0.9064,-0.901,-0.8995,-0.899,-0.8915,-0.8883,-0.8839,-0.8837,-0.8819,-0.881,-0.8811,-0.8797,-0.8796,-0.8795,-0.879,-0.8789,-0.8805,-0.8805,-0.8805,-0.8805,0,-0.9254,-0.9223,-0.9209,-0.916,-0.9135,-0.9108,-0.9069,-0.9048,-0.9028,-0.9,-0.8961,-0.8921,-0.8878,-0.8866,-0.8845,-0.8819,-0.8817,-0.8805,-0.8796,-0.8797,-0.8792,-0.8789,-0.8807,-0.8807,-0.8806,-0.8806,0,0,-0.9271,-0.9205,-0.92,-0.9177,-0.9127,-0.9102,-0.9073,-0.9032,-0.9015,-0.8979,-0.8953,-0.8905,-0.8893,-0.8867,-0.8842,-0.8826,-0.8818,-0.8815,-0.8813,-0.8817,-0.8787,-0.8797,-0.8795,-0.8805,-0.8804,-0.8804,-0.8791,0,-0.9263,-0.9212,-0.9181,-0.9142,-0.9113,-0.9082,-0.9057,-0.9023,-0.8996,-0.8966,-0.8936,-0.8902,-0.889,-0.8874,-0.8856,-0.8823,-0.8812,-0.8823,-0.8779,-0.8778,-0.8791,-0.8792,-0.8802,-0.8791,-0.8789,-0.8788,-0.8788,0,-0.9246,-0.9213,-0.9171,-0.9124,-0.9111,-0.9089,-0.9049,-0.9022,-0.8982,-0.8964,-0.8935,-0.891,-0.8878,-0.8872,-0.8826,-0.8835,-0.8815,-0.8796,-0.8794,-0.8789,-0.8783,-0.8786,-0.8787,-0.8786,-0.8784,-0.8785,-0.8785,0,-0.9263,-0.9207,-0.9175,-0.9157,-0.9101,-0.9087,-0.9063,-0.9023,-0.9001,-0.8965,-0.895,-0.8911,-0.8889,-0.8859,-0.8824,-0.8823,-0.8781,-0.8772,-0.8764,-0.8765,-0.8756,-0.8757,-0.8754,-0.8744,-0.8744,-0.8744,-0.8744,0,-0.9256,-0.9232,-0.9182,-0.9163,-0.9134,-0.9098,-0.9071,-0.9044,-0.9009,-0.8983,-0.8953,-0.8929,-0.8884,-0.8854,-0.8826,-0.8792,-0.8783,-0.8766,-0.8759,-0.8769,-0.8771,-0.8755,-0.8754,-0.8744,-0.8744,-0.8744,-0.8744,0,-0.927,-0.9236,-0.9199,-0.915,-0.9137,-0.9118,-0.9076,-0.9055,-0.9027,-0.8994,-0.8984,-0.8939,-0.8903,-0.8865,-0.8814,-0.8796,-0.8762,-0.8753,-0.8776,-0.8772,-0.8766,-0.8767,-0.8752,-0.8748,-0.8742,-0.8742,-0.8742,0,-0.9268,-0.9249,-0.9198,-0.9179,-0.9156,-0.9126,-0.9103,-0.9067,-0.9044,-0.8998,-0.8982,-0.8943,-0.891,-0.8853,-0.8815,-0.8776,-0.8765,-0.8762,-0.8759,-0.8769,-0.8764,-0.8766,-0.8763,-0.8764,-0.8764,-0.8764,-0.8764,0,-0.9268,-0.9252,-0.9221,-0.9184,-0.9158,-0.9127,-0.9095,-0.9081,-0.9038,-0.9013,-0.8976,-0.8951,-0.89,-0.8862,-0.8819,-0.8792,-0.8771,-0.8766,-0.8762,-0.8771,-0.8785,-0.8777,-0.878,-0.8766,-0.8766,-0.8766,-0.8766,-0.8766,-0.9273,-0.9255,-0.9216,-0.9183,-0.9155,-0.9126,-0.9104,-0.9074,-0.9043,-0.9,-0.898,-0.8942,-0.8902,-0.8842,-0.8817,-0.8786,-0.878,-0.8774,-0.8772,-0.8772,-0.8774,-0.8791,-0.8778,-0.8778,-0.8778,-0.8778,-0.8777,0,-0.9271,-0.9245,-0.9215,-0.9171,-0.9145,-0.9129,-0.9092,-0.9071,-0.9039,-0.9004,-0.8973,-0.893,-0.8892,-0.8852,-0.8812,-0.8795,-0.8784,-0.8786,-0.8786,-0.8781,-0.8781,-0.8789,-0.8795,-0.8795,-0.8795,-0.8795,-0.8795,-0.8795,-0.9267,-0.9235,-0.9215,-0.9169,-0.9142,-0.9107,-0.9087,-0.906,-0.9032,-0.8986,-0.8955,-0.893,-0.8893,-0.885,-0.8815,-0.8804,-0.879,-0.8794,-0.878,-0.8782,-0.8781,-0.8779,-0.8786,-0.8792,-0.8792,-0.8782,-0.8782,-0.8782]},{"header":{"parameterUnit":"m.s-1","parameterCategory":1,"la1":30.2991,"la2":30.254,"lo1":-89.0895,"lo2":-89.0444,"dy":0.0017,"dx":0.0017,"nx":28,"ny":28,"refTime":"2025-05-16T03:00:00:Z","depth":0,"parameterNumber":3,"parameterNumberName":"V-component_of_WINDS"},"data":[0,0,0,0,0,0,0,0,0,0,0,0,0,0,0,0,0,0,0,0,0,0,0,0,0,0,0,0,0,0,0,0,0,0,0,0,0,0,0,0,0,0,0,0,0,0,0,0,0,0,0,0,0,0,0,0,0,0,5.0837,5.0837,0,5.0829,5.0829,5.0829,5.0757,5.0755,5.0753,5.0752,5.0742,5.0744,5.0745,0,0,0,0,0,0,0,0,0,0,0,0,0,5.079,5.0791,5.0837,5.0837,5.0837,5.0829,5.0829,5.0829,5.0757,5.0755,5.0753,5.0751,5.0742,5.0743,5.0745,0,0,0,0,0,0,0,0,0,0,0,0,0,5.0799,5.0792,5.0837,5.08,5.0797,5.0829,5.0829,5.0829,5.0758,5.0755,5.0752,5.075,5.0741,5.0743,5.0745,5.0812,0,0,5.0752,5.0753,0,0,0,0,0,0,0,0,5.0799,5.0801,5.0806,5.0803,5.0799,5.0791,5.0809,5.0823,5.0758,5.0772,5.0752,5.0748,5.0761,5.0761,5.0765,5.0812,5.0811,5.0752,5.0753,5.0754,5.0755,0,0,0,0,0,0,0,5.0798,5.0801,5.0834,5.0806,5.0802,5.0784,5.0782,5.0811,5.0782,5.0771,5.0766,5.0766,5.0758,5.0763,5.0765,5.0811,5.0752,5.0754,5.0755,5.0756,5.0914,5.0917,0,0,0,0,0,0,5.0803,5.0801,5.0834,5.0834,5.0792,5.0787,5.0785,5.0796,5.0781,5.0776,5.0768,5.0763,5.0761,5.0762,5.0764,5.0842,5.0754,5.0756,5.0757,5.0911,5.0914,5.0918,0,0,0,0,0,0,5.0802,5.0806,5.0834,5.0816,5.0818,5.0791,5.0804,5.0798,5.0803,5.0779,5.0773,5.0779,5.0759,5.0761,5.0801,5.0841,5.0757,5.0759,5.0907,5.0912,5.0916,5.0999,0,0,0,0,0,0,5.0801,5.0807,5.0831,5.0817,5.0819,5.0872,5.0806,5.0799,5.0807,5.0799,5.0788,5.0783,5.0757,5.0798,5.0803,5.0842,5.0761,5.0904,5.0909,5.0915,5.0993,5.1006,5.1017,0,0,0,0,0,5.08,5.0854,5.0833,5.0837,5.085,5.0874,5.0876,5.0845,5.081,5.0835,5.082,5.0783,5.0836,5.0803,5.0808,5.0848,5.0901,5.0908,5.0914,5.0987,5.1003,5.1017,0,0,0,0,0,0,5.0873,5.0852,5.0828,5.088,5.088,5.0862,5.0892,5.0863,5.0872,5.0865,5.0826,5.0824,5.087,5.0863,5.0827,5.0913,5.0862,5.087,5.0916,5.0931,5.0943,5.0944,5.0762,0,0,0,0,0,5.0895,5.0917,5.0897,5.0945,5.0946,5.092,5.0929,5.0906,5.0904,5.0903,5.0891,5.0891,5.0907,5.0919,5.0932,5.0992,5.0989,5.1022,5.1034,5.1044,5.1051,5.1084,5.1099,5.0939,5.0939,5.0939,0,0,5.0941,5.0932,5.0948,5.096,5.0957,5.0981,5.092,5.0947,5.0965,5.0907,5.0945,5.0937,5.0933,5.0984,5.1006,5.0979,5.1095,5.1053,5.1061,5.1062,5.1092,5.1107,5.1121,5.0944,5.0943,5.0942,0,0,5.1038,5.1033,5.1073,5.1072,5.1069,5.1052,5.1062,5.1049,5.1042,5.1079,5.1037,5.1058,5.1086,5.1086,5.109,5.119,5.1157,5.1195,5.1259,5.1291,5.1304,5.1315,5.1351,5.1365,5.1203,5.1203,5.1203,0,5.1095,5.113,5.1097,5.1128,5.1135,5.1086,5.1126,5.1127,5.1128,5.1134,5.1105,5.1142,5.1136,5.1187,5.1211,5.1216,5.1226,5.1196,5.1304,5.1315,5.1325,5.1359,5.1373,5.1208,5.1207,5.1206,5.1206,0,5.1201,5.1226,5.1259,5.1263,5.1274,5.1309,5.1283,5.1297,5.1274,5.126,5.1299,5.1291,5.1303,5.1313,5.129,5.1362,5.1346,5.1311,5.1259,5.1346,5.1377,5.139,5.1214,5.1213,5.1211,5.121,0,0,5.1341,5.133,5.1342,5.1345,5.1339,5.1358,5.1392,5.1405,5.1419,5.1422,5.145,5.1477,5.1446,5.145,5.1427,5.1455,5.1536,5.1417,5.1416,5.144,5.1616,5.1643,5.1658,5.1514,5.1517,5.1518,5.1617,0,5.1435,5.1493,5.1466,5.1528,5.1551,5.1506,5.1536,5.1536,5.1524,5.1542,5.1529,5.1549,5.1505,5.1508,5.1534,5.1521,5.1571,5.1513,5.154,5.1542,5.1543,5.1675,5.1702,5.1795,5.1629,5.1631,5.1632,0,5.1551,5.1562,5.1626,5.1619,5.1628,5.1655,5.1666,5.1684,5.1683,5.1673,5.168,5.165,5.1683,5.1632,5.1678,5.164,5.1649,5.1645,5.1648,5.1649,5.1593,5.1681,5.1824,5.1839,5.1651,5.165,5.1649,0,5.1649,5.1679,5.1722,5.1725,5.1717,5.1738,5.1735,5.1733,5.1743,5.1752,5.1759,5.1772,5.1779,5.179,5.1765,5.173,5.1815,5.1761,5.1807,5.1808,5.1827,5.1827,5.1975,5.1833,5.1833,5.1832,5.1832,0,5.1757,5.1798,5.1766,5.1792,5.1838,5.1807,5.1853,5.1845,5.1844,5.1868,5.1829,5.1853,5.1818,5.1839,5.1819,5.1861,5.1864,5.1857,5.1852,5.1861,5.1862,5.1867,5.186,5.1836,5.1835,5.1835,5.1834,0,5.1873,5.1853,5.1897,5.1887,5.1886,5.192,5.1911,5.1935,5.1922,5.1953,5.1959,5.1937,5.1959,5.1936,5.1956,5.1943,5.2,5.1984,5.2,5.1996,5.2044,5.2041,5.2202,5.2222,5.2066,5.2068,5.2069,0,5.1943,5.1974,5.1969,5.1983,5.1983,5.2006,5.2017,5.1989,5.2002,5.2005,5.203,5.2049,5.2063,5.21,5.2086,5.2102,5.2087,5.2143,5.2089,5.2098,5.2089,5.2088,5.2091,5.2154,5.2155,5.2157,5.2158,0,5.207,5.2059,5.2077,5.2093,5.2108,5.2118,5.2125,5.2139,5.2109,5.2126,5.2149,5.216,5.2182,5.2202,5.2214,5.2211,5.2181,5.2175,5.2187,5.2197,5.2206,5.2203,5.2031,5.2172,5.217,5.2169,5.2169,5.2168,5.2166,5.2192,5.2193,5.2215,5.2218,5.2227,5.225,5.224,5.2259,5.2276,5.2257,5.2286,5.2287,5.23,5.2301,5.2323,5.23,5.2316,5.2321,5.2325,5.2333,5.2202,5.2325,5.2325,5.2324,5.2324,5.2324,0,5.2292,5.2291,5.2311,5.2324,5.2342,5.2313,5.232,5.2336,5.2363,5.2366,5.2382,5.2409,5.2429,5.2418,5.2435,5.2455,5.2441,5.246,5.2459,5.2459,5.2353,5.2341,5.2471,5.2471,5.2471,5.2471,5.2471,5.2471,5.2359,5.2403,5.2393,5.2439,5.2437,5.2467,5.2473,5.2481,5.2484,5.2518,5.2534,5.2527,5.2525,5.2542,5.256,5.2556,5.2564,5.2589,5.258,5.2481,5.2466,5.2452,5.2442,5.2591,5.2591,5.2684,5.2685,5.2686]}]]